RH
19 15 10 6 4 4 4 3 3 3 3 3 2 2 2 3 10 23 32 29 30 42 38 48 37 26 19 16 20 11 21 38 54 62 59 69 56 57 54 62 55 55 53 55 53 56 59
22 17 12 7 4 4 4 3 3 3 3 3 2 2 2 5 13 23 38 44 48 48 39 14 19 19 17 22 15 9 19 44 54 68 68 70 65 63 63 62 54 57 49 50 53 50 56
27 20 14 7 5 4 4 4 4 4 4 3 2 2 2 7 18 31 37 40 33 21 31 20 26 15 14 22 16 12 15 44 46 72 74 73 70 62 62 60 60 52 49 40 36 46 42
31 24 16 10 5 5 5 4 4 4 4 3 2 2 2 6 19 43 41 39 37 41 41 22 11 8 19 14 19 22 20 54 54 65 70 61 61 56 51 47 37 52 48 54 41 30 37
26 27 19 12 7 5 5 5 4 4 4 4 2 2 2 3 14 38 44 36 47 41 24 13 16 8 16 10 14 30 50 60 63 64 56 37 34 35 44 45 39 37 37 35 31 31 22
9 30 24 15 8 6 6 5 5 4 4 4 2 2 2 4 10 25 24 28 39 26 18 12 11 11 12 18 15 38 41 41 43 44 40 29 28 19 25 27 15 28 22 25 22 26 23
14 18 29 20 11 7 6 6 5 5 4 4 2 1 2 4 6 21 30 23 16 13 13 26 20 21 15 15 15 24 36 38 30 26 23 32 17 26 31 32 40 38 33 26 24 29 27
54 11 27 26 14 8 6 6 6 5 5 4 2 1 2 6 6 18 29 23 13 12 23 20 20 20 19 13 13 17 24 23 26 26 26 21 22 22 23 25 28 31 40 33 23 26 25
80 50 12 29 19 10 7 6 6 6 6 5 3 2 2 4 8 9 24 26 20 13 22 26 22 22 22 16 33 25 15 26 24 26 26 23 24 26 16 22 23 25 32 26 29 29 32
73 81 45 14 27 13 8 7 7 7 6 5 3 2 2 2 6 5 14 23 22 20 19 26 25 25 24 20 32 27 18 21 25 28 24 30 34 23 17 23 30 26 25 32 35 36 28
79 82 85 39 22 19 10 8 8 8 7 6 4 2 2 3 3 8 16 24 20 34 32 27 26 23 25 27 33 28 26 24 22 24 19 25 25 22 21 24 28 26 32 38 39 38 41
89 83 80 83 35 31 17 10 9 8 8 6 4 2 4 4 8 19 22 20 38 30 49 31 29 26 24 33 40 35 32 24 29 22 22 26 31 24 22 28 30 38 38 38 40 42 56
99 91 85 91 59 22 22 13 10 12 19 13 5 3 5 6 12 27 23 41 21 25 26 29 29 28 26 30 37 34 32 27 24 31 25 30 30 29 34 30 34 40 33 30 29 48 30
99 99 96 84 89 29 25 14 12 34 42 22 9 4 6 9 16 30 33 30 17 20 22 32 33 32 24 28 42 47 37 28 40 33 27 34 38 29 34 33 32 41 45 31 31 22 23
100 100 99 86 93 57 22 20 17 31 48 27 8 8 11 15 26 34 35 17 11 20 28 32 33 30 34 36 32 45 43 33 34 38 35 32 31 40 38 40 41 44 35 54 62 57 49
100 99 100 97 92 92 60 23 16 33 68 35 12 14 20 17 30 53 29 18 20 37 34 30 18 20 24 38 30 45 38 43 44 46 43 41 48 38 42 44 38 48 48 61 47 47 43
100 100 100 100 100 95 97 67 42 31 56 37 23 26 27 28 34 42 25 20 36 45 36 28 23 26 23 39 28 31 32 52 42 52 46 35 35 48 48 48 40 46 55 62 55 60 45
82 100 100 100 100 99 100 83 46 50 79 77 28 35 29 36 30 32 28 30 46 46 48 42 36 35 34 34 34 30 34 45 49 50 49 51 49 44 44 46 44 46 55 51 35 55 66
40 55 87 100 100 100 100 98 89 72 80 39 21 25 32 30 72 37 45 42 46 48 44 44 42 39 42 38 48 34 50 53 50 46 54 63 50 41 48 62 55 57 60 68 74 68 68
44 61 89 100 100 100 100 100 92 66 88 68 65 78 40 40 38 30 42 44 43 53 47 50 45 43 47 44 47 74 59 46 49 46 63 63 73 57 25 42 56 78 62 53 55 68 52
65 100 100 100 100 100 100 100 98 81 95 90 83 87 44 66 35 35 45 47 47 53 52 51 59 48 73 80 49 55 56 53 49 55 64 56 62 63 66 75 72 65 61 62 67 51 40
63 92 99 100 100 100 100 100 100 94 99 88 89 95 83 72 49 46 48 76 48 64 67 62 66 58 78 75 55 65 69 64 56 50 54 62 61 73 61 72 79 88 76 68 68 59 68
39 78 100 100 100 100 100 100 100 98 100 96 97 94 98 97 56 82 80 74 80 63 87 69 72 80 66 45 50 75 72 72 64 65 68 62 71 64 44 72 77 68 56 66 59 63 65
12 52 91 100 100 100 99 100 100 100 100 98 93 95 98 89 64 64 51 52 50 60 71 84 86 77 72 44 49 52 50 57 58 71 62 65 61 56 52 77 39 37 61 64 56 53 70
20 25 83 99 100 98 100 100 100 99 100 98 98 97 80 94 65 64 52 69 90 98 87 77 81 73 48 53 67 66 64 75 87 72 67 74 62 74 62 58 39 18 64 68 73 54 64
16 63 46 91 92 100 100 100 99 100 100 100 100 98 97 95 82 71 73 76 85 90 91 95 88 66 77 68 64 52 43 38 83 91 56 67 71 62 73 56 34 39 54 63 60 46 50
17 85 95 58 96 100 100 100 98 100 99 100 99 100 97 96 68 66 72 79 78 94 84 93 94 89 85 76 63 58 47 64 65 78 88 77 71 62 52 59 51 52 61 45 50 43 61
14 31 92 99 91 100 100 99 99 100 99 100 98 99 97 96 69 59 61 61 84 83 92 96 86 89 86 84 64 49 58 61 54 64 74 76 81 79 64 68 63 56 51 53 62 60 50
12 14 37 100 99 97 100 100 100 100 99 99 99 97 97 95 71 71 59 51 56 61 80 85 85 85 74 73 77 75 69 66 45 37 59 59 60 60 61 53 68 60 68 59 56 61 61
Wind_Speed
9 9 8 5 4 5 7 8 10 11 12 12 13 13 13 13 11 12 15 18 22 20 21 7 2 2 3 9 8 11 8 6 8 9 9 9 7 7 8 9 12 14 12 16 14 23 23
8 8 7 5 4 5 6 7 9 10 12 13 13 12 12 10 9 9 10 13 15 18 12 10 4 2 2 7 11 11 7 7 9 10 11 7 6 11 11 10 4 12 18 13 12 17 9
7 7 7 3 2 4 5 7 9 10 12 13 13 13 11 9 7 7 10 13 16 13 7 7 1 9 16 9 14 9 6 9 10 11 14 15 12 4 10 13 9 11 10 11 10 5 5
6 7 6 4 2 3 4 6 8 10 12 13 13 13 11 8 6 6 7 8 6 4 2 4 9 8 7 10 11 5 12 12 11 12 15 14 12 16 7 11 5 4 4 5 5 4 4
5 5 5 3 2 3 4 6 8 9 12 13 13 12 10 6 4 4 3 2 3 4 5 3 2 5 5 5 10 9 11 15 14 14 15 10 8 8 5 8 5 1 3 3 5 4 2
5 6 5 3 1 2 4 5 6 8 10 11 12 12 9 4 3 3 3 3 4 2 1 4 7 7 7 7 9 11 15 12 12 13 8 7 7 6 4 3 3 5 3 2 2 3 4
4 6 6 5 2 2 3 5 5 7 9 11 11 10 9 3 2 3 4 6 2 3 17 10 7 10 9 9 14 9 10 8 6 9 4 8 7 9 9 9 6 6 3 1 1 1 6
5 5 6 7 4 3 2 4 5 6 8 10 10 9 7 2 1 4 6 2 0 8 13 11 10 9 12 5 5 10 8 3 5 6 3 4 8 7 7 5 5 4 3 3 3 5 5
7 6 7 7 7 5 3 3 4 6 7 9 10 9 6 2 1 5 11 8 2 8 4 3 7 5 4 8 7 12 6 6 8 5 4 2 11 4 4 5 5 4 3 2 3 4 3
10 7 8 8 8 6 5 4 3 5 6 8 9 8 6 3 1 2 6 10 7 2 3 3 2 4 2 4 6 11 7 4 4 10 10 8 5 4 4 3 3 4 3 3 5 4 3
12 11 9 9 8 7 7 6 4 4 5 6 8 7 5 4 2 2 3 11 10 1 4 4 3 2 5 5 4 5 8 6 6 7 3 5 9 7 3 0 2 2 3 6 5 5 4
16 14 13 10 9 9 8 8 7 4 5 5 8 6 4 3 2 1 9 15 4 3 5 4 3 2 3 4 3 2 4 9 7 7 9 7 4 2 2 2 2 4 1 3 2 2 3
20 18 15 12 10 10 9 9 7 7 4 7 6 6 3 3 1 6 16 9 2 5 2 4 2 2 3 2 2 1 2 6 4 6 6 5 4 4 2 5 3 2 3 3 3 4 2
20 19 17 14 13 13 11 10 9 9 8 5 6 4 3 3 4 12 17 2 4 2 4 3 4 6 3 4 1 2 5 5 2 2 5 8 5 8 4 2 2 1 2 3 5 3 3
23 20 20 17 15 14 13 12 11 11 10 6 4 5 2 2 7 16 6 3 4 1 6 10 5 5 5 3 2 4 5 4 5 6 5 6 4 3 3 2 3 5 3 1 0 0 3
24 22 21 22 17 18 16 14 12 13 11 5 3 6 4 4 12 15 2 4 2 2 6 5 8 8 8 8 7 7 9 5 7 4 2 6 4 6 5 1 6 4 8 3 2 3 6
23 25 23 26 22 21 21 19 15 14 9 5 4 2 3 8 13 6 4 4 4 6 4 6 5 6 5 7 9 6 5 4 6 6 4 5 2 6 5 8 9 5 4 1 1 2 4
28 26 23 25 26 26 22 19 18 16 14 8 4 2 9 15 3 3 3 2 4 6 4 3 3 4 9 9 8 7 9 1 13 13 7 3 1 5 2 2 2 2 4 7 4 6 2
26 29 27 25 28 28 26 22 19 18 15 9 4 3 10 15 4 5 2 3 4 5 5 6 7 4 2 8 5 7 5 1 11 9 8 8 4 3 3 2 3 6 6 3 4 1 9
19 23 24 25 29 27 26 20 19 21 20 16 9 2 4 13 6 2 4 5 5 5 4 4 4 5 4 4 2 6 6 4 7 7 5 8 3 5 6 3 4 6 12 14 9 5 7
11 17 17 18 27 28 27 24 21 23 21 16 9 5 7 4 8 10 4 2 5 6 4 7 3 9 7 5 4 6 6 6 5 6 4 4 6 4 3 1 3 5 8 18 19 16 12
10 14 16 23 27 26 28 24 23 24 24 21 11 7 9 2 3 8 6 6 10 4 9 6 7 8 9 6 7 10 10 8 6 7 6 1 3 2 3 2 6 9 14 16 20 19 18
10 11 19 22 25 27 26 26 25 23 26 13 16 13 6 7 6 5 5 7 9 10 9 1 6 6 9 6 4 5 6 7 8 10 8 7 7 5 3 1 2 7 20 23 14 14 18
11 11 15 23 24 29 27 26 25 24 25 25 14 14 7 4 9 8 5 9 7 7 3 3 5 5 6 17 21 17 19 16 12 9 4 7 6 2 1 2 7 3 1 2 19 11 20
11 12 14 19 24 29 32 29 24 21 23 24 20 14 10 3 10 8 9 5 9 8 4 4 2 3 25 7 3 3 2 1 3 5 4 3 4 3 3 5 9 7 6 7 10 10 22
15 15 16 18 23 34 32 33 28 22 23 22 23 22 9 8 8 2 8 9 4 4 3 3 3 25 10 3 3 7 7 4 5 3 2 3 2 3 3 5 7 4 1 5 3 8 7
15 13 12 16 25 30 39 33 31 24 24 25 21 24 14 5 6 10 4 6 9 5 3 6 10 8 6 3 5 5 5 1 7 9 7 4 3 11 9 6 8 0 7 7 5 5 16
17 15 15 20 22 34 39 36 34 24 25 25 23 24 21 8 7 11 9 8 10 10 5 11 6 6 5 6 5 4 5 6 4 4 7 10 10 6 5 7 10 6 7 5 3 7 13
19 18 18 16 21 29 40 39 33 24 24 24 21 20 20 8 3 9 11 11 13 10 12 25 1 6 11 4 4 2 3 3 4 3 2 4 5 4 10 4 2 7 2 1 10 11 9
Wind_Direction
25 25 22 28 46 45 35 32 28 23 22 19 16 18 18 23 32 46 56 66 93 110 129 93 145 57 50 66 25 34 53 80 109 118 130 126 127 108 114 125 98 110 99 76 89 84 83
22 26 25 28 35 32 26 26 26 20 16 14 14 16 20 27 40 54 71 86 92 108 123 66 87 81 94 70 8 30 78 89 114 120 123 122 128 111 94 104 71 113 107 104 71 81 91
16 18 18 38 44 21 15 16 16 16 14 15 9 10 18 27 49 69 89 101 111 115 82 59 226 57 68 56 14 33 112 105 108 121 112 121 124 116 122 105 122 129 114 114 60 91 107
7 12 18 11 18 12 12 9 11 10 11 10 10 7 11 26 54 98 109 112 121 123 72 76 75 73 79 47 37 78 118 114 110 127 121 111 124 106 73 121 76 126 160 195 63 36 112
352 1 7 9 350 351 359 4 8 7 7 5 8 3 10 20 61 110 115 112 124 115 78 31 76 99 80 47 48 94 124 117 115 118 117 121 121 72 77 138 138 142 187 185 141 69 21
333 342 347 352 337 327 336 352 5 8 7 5 4 1 3 20 73 114 119 94 102 137 86 79 84 96 42 20 42 111 123 119 117 114 98 61 56 97 66 226 205 162 175 170 250 15 352
313 329 333 331 299 279 317 336 357 5 3 5 7 2 357 12 99 148 158 143 348 52 76 68 78 86 65 82 56 123 140 118 94 56 53 26 90 85 68 57 77 92 95 217 206 16 323
294 308 318 318 297 262 279 317 339 358 4 4 5 5 5 345 164 193 194 227 332 141 98 87 70 72 49 80 83 72 137 76 36 88 85 87 98 92 81 74 97 109 134 223 265 197 283
281 296 303 310 305 275 256 295 325 343 1 6 2 7 12 5 239 227 228 235 303 135 79 74 56 51 39 63 55 20 74 71 69 64 59 81 131 125 103 112 154 172 213 209 278 306 234
278 285 294 299 302 284 260 273 303 327 351 4 358 2 10 17 301 272 227 220 199 144 254 130 55 30 37 88 65 36 61 93 86 105 90 90 143 160 126 115 259 201 186 279 269 271 293
266 273 276 285 295 294 270 253 268 301 325 358 353 350 9 21 319 243 219 169 166 268 285 97 78 84 70 88 127 31 45 63 118 132 210 120 156 164 188 198 209 77 284 277 258 242 285
261 257 265 268 281 282 268 265 268 268 308 349 352 336 6 22 29 157 153 152 147 234 252 146 129 159 128 37 65 47 78 85 110 83 86 126 122 173 136 185 243 332 228 137 142 190 241
263 256 256 257 261 264 263 260 263 277 309 331 359 329 350 32 96 146 151 147 201 228 90 156 174 163 119 116 93 54 113 141 180 139 172 158 166 143 161 176 212 273 204 230 218 213 321
260 257 252 251 258 257 255 250 251 268 279 313 323 310 309 59 129 154 151 202 228 95 186 119 127 129 216 162 144 141 152 173 164 188 157 182 211 189 143 235 198 177 254 288 284 275 342
266 245 248 248 251 250 251 248 248 262 279 283 320 266 252 118 157 162 150 207 276 141 135 151 136 193 190 201 235 193 219 217 166 188 212 167 176 109 69 149 236 150 203 32 89 67 274
250 249 253 251 246 249 242 247 245 261 266 266 280 268 243 186 171 173 181 243 210 132 128 166 212 203 198 186 192 204 190 168 167 186 210 172 136 194 157 193 58 251 136 163 183 251 260
242 250 250 245 249 256 253 238 241 248 231 210 245 243 178 158 160 178 233 226 168 170 166 191 207 179 215 187 203 204 190 164 174 144 161 162 246 146 162 205 187 156 183 102 11 266 256
248 236 249 248 247 254 251 232 222 237 248 220 196 217 177 161 158 220 237 232 161 163 156 159 183 186 196 179 194 222 214 239 172 158 162 160 122 183 185 93 337 294 214 193 220 188 214
250 245 238 248 250 248 248 250 242 231 239 180 183 176 184 177 200 216 200 249 247 156 194 180 199 206 138 186 218 206 187 138 166 168 158 174 187 165 197 203 204 226 189 153 95 48 204
252 241 234 241 253 252 250 250 242 226 229 198 158 163 178 202 238 249 181 216 216 200 189 173 145 122 143 182 211 179 160 165 187 184 152 161 182 239 266 49 119 199 196 192 190 201 190
251 222 236 252 252 246 247 240 241 224 229 200 174 206 185 206 225 214 206 163 192 203 197 190 185 210 170 172 173 202 162 150 178 202 124 199 225 217 250 204 230 235 207 195 208 216 214
276 228 245 261 256 260 252 248 250 233 230 195 178 171 180 221 157 166 177 202 215 170 170 211 226 209 181 180 206 192 162 187 184 170 157 174 200 162 254 225 235 256 242 220 221 231 246
283 245 248 253 263 264 261 256 253 241 223 202 203 182 177 168 162 178 214 199 210 168 209 206 228 161 207 223 129 92 134 107 133 165 161 167 155 161 233 33 267 256 238 211 209 218 220
305 263 243 250 260 258 268 267 268 242 228 224 211 188 168 204 192 204 214 199 187 200 167 158 159 180 144 126 104 89 79 79 76 50 89 149 145 176 257 210 246 316 41 250 219 232 217
306 288 252 238 246 250 256 261 264 257 240 224 220 191 174 204 202 195 178 147 113 99 104 137 126 186 148 129 110 124 106 136 78 44 28 358 143 159 230 224 319 275 196 181 183 258 216
315 298 254 225 239 247 247 250 257 252 234 219 225 215 184 132 221 216 161 178 168 142 126 117 115 158 152 175 168 201 210 176 185 162 64 79 46 247 158 247 262 34 149 187 201 268 22
316 314 296 238 238 249 244 244 246 237 219 223 225 217 188 181 211 174 169 173 161 137 118 128 145 192 177 177 205 210 215 67 188 181 169 165 188 219 217 257 283 117 144 149 188 317 340
306 302 282 271 233 241 237 236 242 221 222 218 216 208 206 187 192 206 194 166 161 167 161 138 125 205 175 202 213 202 211 198 188 139 179 175 165 192 190 223 264 145 126 213 1 358 7
301 293 288 272 248 228 233 228 218 210 224 219 206 211 208 186 184 208 210 210 205 195 185 175 235 157 174 186 207 130 173 165 177 225 217 216 220 189 203 214 45 204 25 14 327 322 340